Temperature
16 16 17 17 17 17 17 17 17 17 17 17 17 17 17 17 17 17 17 17 17 17 17 17 17 17 17 17 17 18 18 18 18 18 18 18 18 18 18 18 18 17 18
16 17 17 17 17 17 17 17 17 17 17 17 17 17 17 17 17 17 17 17 17 17 17 17 17 17 17 17 17 17 17 17 18 18 18 17 17 18 18 18 17 17 17
17 16 17 17 17 17 17 17 17 17 17 17 17 17 17 17 17 17 17 17 17 17 17 17 17 17 17 17 17 17 17 17 18 18 17 17 17 17 17 17 17 17 17
16 16 16 17 17 17 17 17 17 17 17 17 17 17 17 17 17 17 17 17 17 17 17 17 17 17 17 17 17 17 17 17 17 17 17 17 17 17 17 17 17 17 17
16 16 16 17 17 17 17 17 17 17 17 17 17 17 17 16 16 17 17 17 17 17 17 17 17 17 17 17 17 17 17 17 17 17 17 17 17 17 17 17 17 17 17
16 16 16 17 17 17 17 17 17 17 17 17 17 17 16 16 16 16 16 16 16 17 17 16 16 17 17 17 17 17 17 17 17 16 16 16 17 17 17 17 17 17 17
16 16 16 17 17 17 17 16 17 17 16 16 16 16 16 16 16 16 16 16 16 16 16 16 16 16 17 17 17 17 17 17 16 16 16 16 16 17 17 17 17 17 17
16 16 16 17 17 17 16 16 16 16 16 16 16 16 16 16 16 16 16 16 16 16 16 16 16 16 16 16 16 16 16 16 16 16 16 16 16 16 16 16 16 16 16
16 16 16 16 16 16 16 16 16 16 16 16 16 16 16 16 16 16 16 16 16 16 16 16 16 16 16 16 16 16 16 16 16 16 16 16 16 16 16 16 16 16 16
16 16 16 16 16 16 16 16 16 16 16 16 16 16 16 16 16 16 16 16 16 16 16 16 16 16 16 16 16 16 16 16 16 16 15 15 16 16 16 16 16 16 16
16 16 16 16 16 16 16 16 16 16 16 16 16 16 16 15 15 15 16 16 16 16 16 16 16 16 16 16 16 16 16 15 15 15 15 15 16 16 16 16 16 16 16
17 16 16 16 16 16 16 16 16 16 16 15 15 15 15 15 15 15 15 15 15 16 16 16 16 15 15 15 15 16 15 15 15 15 15 15 15 15 15 15 15 15 15
17 16 16 16 16 16 16 16 16 15 15 15 15 15 15 15 15 15 15 15 15 15 15 15 15 15 15 15 15 15 15 15 15 15 15 15 15 15 15 15 15 15 15
16 16 16 16 16 16 16 16 15 15 15 15 15 15 15 15 15 15 15 15 15 15 15 15 15 15 15 15 15 15 15 15 15 15 15 15 15 15 15 15 15 15 15
16 16 16 16 16 16 16 16 15 15 15 15 15 15 15 15 15 15 15 15 14 14 14 14 14 15 15 15 15 15 15 15 15 14 14 15 15 15 15 14 14 14 14
17 16 16 16 16 16 16 16 15 15 15 15 15 15 15 15 15 15 14 14 14 14 14 14 14 14 14 14 14 14 14 14 14 14 14 14 14 14 14 14 14 14 14
17 17 16 16 16 16 16 16 15 15 15 15 15 15 15 15 15 14 14 14 14 14 14 14 14 14 14 14 14 14 14 14 14 14 14 14 14 14 14 14 14 14 14
17 17 16 16 16 16 16 15 15 15 15 15 15 15 15 15 15 14 14 14 14 14 14 14 14 14 14 14 14 14 14 14 14 14 14 13 14 13 14 14 14 14 13
17 17 16 16 16 16 16 15 15 15 15 15 15 15 14 14 14 14 14 14 14 14 14 14 14 14 14 13 13 13 13 13 13 13 13 13 13 13 13 13 13 13 13
17 17 16 16 16 16 16 15 15 15 15 15 15 15 14 14 14 14 14 14 14 14 14 14 14 14 13 13 13 13 13 13 13 13 13 13 13 13 13 13 13 13 13
17 17 17 16 16 16 15 15 15 15 15 15 15 15 14 14 14 14 14 14 14 14 14 14 13 13 13 13 13 13 13 13 13 13 13 13 13 13 13 13 13 13 12
17 17 17 16 16 16 15 15 15 15 15 15 15 15 15 14 14 14 14 14 14 14 13 13 13 13 13 13 13 14 14 13 12 13 13 13 12 12 12 12 12 12 12
17 17 17 16 16 16 15 15 15 15 15 15 15 15 15 14 14 14 14 14 14 13 13 13 13 13 13 13 13 13 14 14 13 12 12 12 12 12 12 12 12 12 12
17 17 16 16 16 16 16 15 15 15 15 15 15 15 15 14 14 14 14 14 14 14 14 13 13 13 13 13 13 13 13 13 13 13 13 12 12 12 12 12 12 12 12
17 16 16 16 16 16 16 15 15 15 15 15 15 15 15 14 14 14 14 14 14 14 14 13 13 13 13 13 13 13 13 13 13 13 13 13 12 12 12 12 12 12 12
16 16 16 16 16 16 16 15 15 15 15 15 15 15 15 14 14 14 14 14 14 14 14 13 13 13 13 13 13 13 13 13 13 13 13 13 13 12 12 12 12 12 12
Wind_Speed
3 4 6 6 7 8 8 8 9 9 9 8 8 8 8 9 9 10 9 8 9 9 10 10 10 10 10 11 10 10 10 9 9 9 8 7 7 7 7 6 4 5 6
3 5 7 6 8 10 9 10 10 9 9 9 9 9 9 9 9 9 9 9 9 10 10 10 10 10 10 11 10 10 10 10 10 10 8 7 8 8 8 7 7 7 7
4 5 6 7 8 10 10 11 10 10 10 9 9 9 9 9 9 8 9 9 9 10 10 10 10 10 10 10 11 11 11 11 10 7 5 7 9 10 9 8 8 8 8
5 5 7 8 8 9 9 10 10 10 10 9 9 10 9 9 8 8 8 9 10 10 10 10 10 10 10 10 11 11 11 11 9 5 6 9 9 12 10 9 9 9 9
6 6 8 7 8 9 9 10 10 11 11 10 10 10 10 9 8 8 9 10 11 11 10 10 10 10 10 11 12 12 12 11 8 7 10 9 10 12 11 11 11 10 10
6 6 9 8 8 9 10 10 11 11 11 11 11 10 10 10 11 11 12 12 12 11 11 10 10 11 11 12 12 13 12 9 7 10 10 10 10 12 12 12 12 11 11
6 7 8 8 9 10 10 10 11 11 11 11 11 11 11 12 13 13 13 13 13 12 12 12 13 13 13 13 13 12 11 9 10 10 10 11 12 12 12 12 12 12 12
6 7 8 9 9 10 10 10 11 11 12 12 12 13 13 13 14 14 14 13 13 14 14 14 14 13 13 13 13 12 11 8 10 10 10 12 13 13 13 13 13 13 13
6 6 6 8 9 10 10 11 12 12 12 13 13 13 13 13 14 14 13 14 14 14 14 14 14 13 13 13 13 12 12 10 10 9 10 11 12 13 13 14 14 14 14
5 5 6 7 7 8 9 11 11 12 12 12 12 12 12 12 12 12 13 14 14 14 14 14 14 13 13 13 13 11 9 7 10 10 10 11 12 12 13 14 14 14 14
5 5 5 6 6 6 7 9 9 10 10 9 10 10 7 9 10 11 14 13 13 14 14 13 13 12 11 12 11 9 7 8 10 10 11 13 12 13 13 13 14 14 14
6 5 5 5 5 6 6 6 5 7 6 7 8 8 7 8 9 10 12 12 12 12 13 12 10 8 7 8 9 6 7 9 9 9 11 13 12 13 13 13 13 13 14
5 5 4 5 5 4 4 4 4 4 5 6 7 7 7 7 7 7 7 8 8 8 9 8 7 8 8 8 8 8 8 8 8 9 12 13 12 12 13 12 12 13 13
5 4 4 4 4 4 4 4 3 4 4 4 5 6 5 5 5 6 5 6 6 6 6 7 6 8 8 9 9 9 9 8 8 8 12 14 13 13 12 12 12 12 13
5 5 4 3 3 3 4 3 3 3 3 5 4 4 5 4 5 5 5 5 6 6 6 6 6 8 8 8 9 9 9 9 9 9 10 14 14 13 13 12 12 12 12
5 4 4 4 3 3 3 3 3 3 3 3 3 3 5 4 4 4 5 5 5 5 5 6 6 6 6 7 8 9 9 9 9 9 9 11 14 14 13 13 12 12 12
5 5 4 4 3 3 3 3 3 3 3 3 3 2 4 4 4 4 4 4 4 5 5 5 6 5 5 6 7 8 8 8 8 8 8 7 9 13 14 14 13 13 12
5 5 5 4 4 3 3 3 3 3 3 3 2 2 3 4 4 4 3 3 4 4 4 4 4 4 5 5 5 5 6 6 8 8 8 8 8 8 11 13 13 13 12
5 5 5 5 4 4 3 3 3 3 2 2 3 2 2 3 3 4 3 3 4 3 3 3 3 3 4 4 5 5 5 5 6 7 8 8 8 8 8 10 12 13 12
5 5 5 5 5 4 3 3 3 3 2 2 2 2 2 2 3 3 3 3 3 3 3 3 4 3 3 3 4 4 4 4 5 6 6 7 7 8 8 8 7 10 11
5 5 5 5 5 5 4 4 3 3 3 2 2 3 3 3 3 3 2 2 2 2 2 3 3 3 2 2 2 3 3 4 4 4 4 5 6 6 6 7 7 6 6
6 6 5 5 5 6 4 4 3 3 2 2 2 3 3 3 3 3 3 2 3 2 2 2 2 2 2 0 0 0 1 3 2 3 3 3 4 4 5 6 6 6 6
6 6 5 5 6 6 5 4 4 3 3 3 3 2 2 3 3 3 3 3 3 3 2 2 2 2 1 1 1 1 1 1 1 2 3 2 3 3 3 4 4 5 5
6 6 6 6 6 6 6 5 5 4 4 3 3 3 3 3 3 3 3 3 3 3 3 3 3 2 2 1 1 1 2 1 1 1 2 2 2 2 2 2 3 4 4
6 6 6 6 6 6 7 6 6 4 3 3 3 3 3 3 3 3 4 4 4 3 4 3 3 3 2 1 1 1 0 0 1 1 0 0 1 1 1 1 2 2 3
4 4 5 6 6 6 7 7 7 6 5 4 4 4 4 3 3 4 4 4 4 3 4 4 4 4 3 2 2 2 2 1 1 1 1 1 0 0 0 0 0 1 1
Wind_Direction
52 50 51 51 55 56 69 76 82 85 82 76 71 72 73 76 80 80 79 78 77 77 76 73 69 68 68 67 67 68 69 70 72 74 75 73 71 69 67 63 62 86 79
74 65 64 55 61 64 76 83 82 80 78 75 74 74 74 76 80 80 80 80 81 81 79 74 71 69 68 67 67 69 70 68 69 69 74 84 80 71 65 60 49 65 71
82 74 76 65 67 66 71 81 80 76 76 76 75 74 73 76 79 81 84 81 82 83 79 73 67 69 69 69 68 69 70 68 68 66 67 73 78 72 63 63 67 70 69
86 77 73 73 73 70 71 76 75 75 77 77 77 75 73 70 75 82 86 83 82 85 82 75 69 66 67 68 68 70 69 66 64 54 67 65 68 69 64 65 67 72 70
89 80 80 78 77 76 75 76 77 76 75 77 77 75 72 67 68 84 93 86 83 84 83 77 73 66 66 69 69 69 67 65 63 59 62 62 65 65 64 66 66 70 71
95 85 84 81 82 80 79 77 77 75 75 76 75 74 72 68 70 86 91 85 81 78 78 78 76 73 71 74 73 70 66 61 64 63 62 63 65 66 65 67 68 70 69
98 90 90 83 83 83 81 79 78 78 77 77 75 74 73 72 74 84 84 81 78 75 74 77 79 77 74 73 72 68 64 56 62 64 62 61 64 67 67 69 71 72 69
102 95 95 92 85 84 82 79 77 78 77 76 74 74 74 74 75 77 78 80 78 76 74 75 76 75 73 72 71 67 60 52 69 64 63 63 63 67 67 68 70 72 70
104 99 99 102 101 95 85 79 77 77 75 75 74 76 76 76 76 76 77 78 77 76 74 72 72 73 72 72 70 67 63 55 63 63 64 63 64 67 69 69 71 71 71
110 104 101 99 99 99 96 86 81 79 76 77 78 78 80 86 84 80 83 78 78 76 75 74 72 72 73 72 69 65 60 61 63 63 61 65 65 68 70 70 71 72 70
119 115 109 106 102 99 96 96 94 90 86 92 88 86 89 86 84 83 77 78 79 78 77 75 74 75 78 78 69 61 59 62 64 60 59 61 65 68 70 72 72 73 72
130 123 117 114 112 107 100 99 93 89 89 84 84 84 78 78 81 85 87 83 83 83 82 77 77 79 71 74 76 69 63 63 62 62 59 59 63 67 69 72 74 74 72
134 124 121 116 113 111 110 104 99 95 91 84 82 88 84 84 92 89 88 92 87 84 78 80 77 69 68 65 60 62 58 57 59 59 57 55 59 65 68 71 73 73 71
143 139 132 124 121 117 112 110 110 106 100 95 92 89 88 85 85 84 84 80 77 77 77 74 75 72 69 68 65 63 62 59 59 62 59 53 56 62 67 69 71 71 71
159 155 148 144 135 119 109 111 116 102 95 101 98 95 90 90 90 88 83 80 79 80 81 77 74 71 66 63 62 61 61 62 61 63 64 58 57 60 64 69 67 67 69
175 167 158 159 144 131 126 125 117 110 110 103 103 98 93 93 93 90 89 85 79 78 77 79 77 73 69 67 65 63 61 61 58 58 62 65 61 58 60 64 65 65 71
181 173 165 162 153 149 140 130 126 132 128 117 110 105 96 93 97 98 90 89 87 86 87 82 81 75 76 77 72 65 61 57 57 56 56 60 67 64 59 58 60 64 69
186 179 173 173 168 167 159 156 149 146 141 133 129 114 101 103 101 96 94 93 100 94 91 87 86 84 83 77 73 67 66 60 54 52 57 59 58 62 66 58 59 59 64
193 193 183 174 176 170 160 158 158 156 157 158 149 135 127 119 116 112 99 102 107 103 96 93 84 86 86 80 82 74 66 61 53 52 57 56 57 57 64 70 66 59 59
193 196 189 174 181 162 162 165 159 166 164 162 161 160 141 135 130 122 126 123 114 112 107 104 97 94 88 88 86 79 71 70 57 49 49 54 53 55 55 57 65 70 63
190 193 185 184 179 169 170 177 176 178 179 167 159 162 154 159 146 138 143 133 134 124 119 122 116 118 113 101 104 97 95 77 60 56 47 51 57 53 54 54 51 50 71
192 194 188 191 183 180 182 183 183 177 179 162 151 158 165 168 164 165 170 157 154 144 148 141 144 141 117 106 6 110 138 126 82 61 57 50 47 51 48 48 51 45 45
196 194 191 192 187 187 184 177 166 165 175 171 171 171 180 189 183 187 184 174 177 180 169 175 180 175 149 117 10 337 334 49 85 101 65 55 46 38 44 40 43 43 47
198 195 191 190 191 190 188 187 187 187 185 185 180 173 180 184 190 192 188 187 190 194 189 196 197 200 202 185 115 356 348 10 310 113 122 86 58 36 26 33 33 39 43
195 194 193 188 191 191 191 191 201 199 192 182 177 178 185 185 192 191 196 200 202 204 206 210 204 215 219 239 242 230 227 221 278 305 31 79 102 70 46 32 42 48 48
179 185 186 187 188 189 193 199 202 199 196 188 192 192 197 198 199 200 202 209 211 213 213 215 220 216 228 235 245 241 241 250 248 264 274 267 313 54 98 73 56 65 54
Height
1536 1535 1533 1532 1530 1527 1524 1523 1525 1527 1528 1528 1528 1528 1528 1528 1527 1527 1528 1528 1527 1527 1527 1527 1526 1526 1526 1525 1524 1524 1524 1523 1523 1523 1523 1523 1522 1522 1522 1521 1521 1521 1519
1537 1536 1534 1533 1532 1528 1526 1526 1527 1529 1529 1530 1529 1529 1529 1528 1528 1528 1528 1529 1528 1528 1528 1528 1528 1527 1527 1526 1526 1525 1525 1525 1524 1524 1524 1524 1523 1523 1522 1522 1521 1520 1519
1538 1537 1536 1535 1534 1532 1530 1530 1530 1531 1531 1531 1530 1530 1530 1529 1529 1529 1529 1529 1529 1529 1529 1529 1529 1529 1528 1528 1527 1527 1526 1526 1525 1525 1525 1526 1525 1524 1523 1522 1521 1520 1519
1539 1538 1538 1536 1536 1534 1533 1533 1533 1533 1532 1532 1532 1531 1530 1530 1528 1527 1529 1529 1530 1530 1530 1530 1530 1530 1530 1529 1528 1528 1528 1527 1527 1527 1527 1527 1526 1525 1524 1523 1522 1521 1519
1540 1539 1538 1537 1537 1537 1536 1535 1535 1535 1534 1534 1533 1533 1531 1530 1526 1524 1527 1530 1531 1531 1532 1532 1531 1531 1531 1530 1530 1529 1529 1529 1528 1528 1528 1527 1527 1526 1525 1524 1523 1522 1521
1541 1541 1540 1539 1539 1538 1538 1538 1537 1537 1536 1536 1535 1534 1533 1530 1526 1524 1528 1531 1533 1533 1533 1533 1533 1532 1532 1532 1531 1531 1530 1530 1530 1530 1529 1529 1529 1527 1527 1526 1525 1524 1522
1542 1542 1541 1540 1540 1540 1540 1539 1539 1539 1538 1538 1537 1536 1535 1533 1531 1530 1532 1534 1534 1535 1534 1534 1534 1534 1533 1533 1533 1533 1532 1532 1532 1531 1531 1531 1530 1529 1528 1527 1526 1525 1524
1543 1543 1542 1542 1542 1542 1541 1541 1541 1541 1540 1540 1539 1538 1538 1537 1535 1535 1536 1536 1537 1537 1536 1536 1536 1535 1535 1535 1535 1534 1534 1534 1534 1534 1533 1532 1531 1531 1530 1529 1528 1527 1527
1544 1544 1544 1544 1544 1543 1543 1543 1542 1542 1542 1542 1541 1540 1540 1539 1539 1539 1539 1539 1539 1539 1538 1538 1538 1538 1537 1537 1536 1536 1536 1536 1536 1536 1535 1534 1533 1533 1532 1531 1530 1530 1529
1545 1545 1545 1545 1546 1546 1545 1544 1544 1544 1544 1543 1543 1543 1542 1542 1542 1541 1541 1541 1541 1541 1541 1540 1540 1540 1539 1539 1539 1538 1538 1538 1538 1538 1537 1536 1535 1534 1534 1533 1532 1532 1531
1546 1546 1547 1547 1547 1547 1547 1546 1546 1546 1545 1545 1545 1545 1545 1545 1545 1544 1544 1543 1543 1543 1543 1542 1542 1542 1541 1541 1541 1540 1540 1541 1540 1540 1539 1538 1537 1536 1535 1535 1534 1534 1533
1547 1547 1548 1548 1548 1548 1548 1548 1548 1548 1548 1548 1548 1547 1547 1547 1547 1546 1546 1546 1545 1545 1545 1545 1544 1544 1544 1544 1543 1543 1543 1542 1542 1542 1541 1540 1539 1538 1537 1537 1536 1536 1535
1548 1548 1548 1549 1549 1549 1549 1549 1550 1550 1549 1549 1550 1549 1549 1549 1549 1549 1549 1548 1548 1547 1547 1547 1547 1547 1547 1546 1546 1545 1545 1544 1544 1544 1543 1542 1541 1540 1539 1539 1538 1537 1537
1548 1548 1549 1549 1550 1550 1550 1550 1551 1551 1551 1551 1551 1551 1551 1551 1551 1551 1551 1550 1550 1549 1549 1549 1548 1549 1549 1548 1548 1547 1547 1546 1545 1545 1544 1543 1543 1542 1541 1541 1540 1539 1539
1548 1549 1549 1549 1550 1550 1551 1551 1551 1552 1552 1552 1552 1552 1552 1552 1552 1552 1552 1551 1551 1551 1551 1550 1550 1550 1550 1550 1549 1549 1548 1548 1547 1547 1546 1545 1544 1544 1543 1542 1542 1541 1540
1548 1549 1549 1550 1550 1551 1551 1551 1552 1552 1552 1553 1553 1553 1554 1553 1553 1553 1553 1553 1552 1552 1552 1552 1552 1552 1551 1551 1550 1550 1550 1549 1549 1548 1548 1547 1546 1545 1545 1544 1543 1542 1542
1548 1548 1549 1550 1550 1551 1551 1552 1552 1553 1553 1553 1554 1554 1555 1554 1554 1554 1554 1554 1554 1554 1554 1554 1553 1553 1552 1552 1552 1551 1551 1551 1550 1550 1549 1548 1548 1547 1546 1545 1544 1544 1543
1547 1548 1549 1549 1550 1551 1551 1552 1552 1553 1553 1554 1554 1554 1555 1555 1555 1555 1555 1555 1555 1555 1555 1554 1554 1554 1554 1554 1553 1553 1553 1552 1552 1551 1551 1550 1549 1549 1548 1547 1546 1545 1544
1546 1547 1548 1549 1549 1550 1551 1551 1552 1553 1553 1554 1554 1555 1555 1555 1556 1556 1555 1556 1556 1556 1555 1555 1555 1556 1555 1555 1554 1554 1554 1553 1553 1552 1552 1551 1550 1550 1549 1548 1547 1546 1545
1545 1546 1547 1548 1548 1549 1550 1551 1552 1552 1553 1553 1554 1554 1555 1555 1556 1556 1556 1556 1556 1556 1556 1556 1556 1556 1556 1556 1556 1555 1555 1554 1554 1553 1552 1552 1552 1551 1550 1550 1549 1548 1547
1544 1545 1546 1547 1548 1548 1549 1550 1551 1552 1553 1553 1554 1554 1555 1555 1556 1556 1556 1556 1556 1556 1556 1556 1556 1556 1556 1556 1556 1556 1556 1556 1555 1554 1553 1553 1552 1552 1551 1551 1550 1549 1549
1542 1543 1544 1545 1547 1547 1548 1549 1550 1551 1552 1553 1553 1553 1554 1555 1555 1556 1556 1556 1556 1556 1556 1556 1556 1557 1557 1556 1557 1557 1557 1558 1556 1555 1554 1553 1553 1553 1552 1552 1551 1550 1550
1540 1541 1543 1544 1545 1546 1547 1549 1550 1551 1551 1552 1553 1553 1554 1554 1555 1555 1556 1556 1556 1556 1556 1556 1556 1556 1557 1557 1557 1558 1557 1556 1557 1557 1555 1554 1554 1553 1553 1552 1552 1551 1551
1538 1540 1541 1542 1544 1545 1546 1547 1549 1550 1550 1551 1552 1552 1553 1554 1554 1555 1555 1555 1556 1556 1556 1556 1556 1556 1557 1557 1557 1556 1557 1557 1557 1557 1557 1555 1554 1553 1553 1552 1552 1551 1551
1537 1538 1539 1540 1542 1543 1545 1546 1547 1548 1549 1550 1551 1552 1552 1553 1553 1554 1554 1555 1555 1555 1555 1556 1556 1556 1556 1556 1557 1556 1556 1556 1556 1556 1556 1556 1555 1554 1553 1552 1552 1551 1550
1534 1535 1537 1538 1539 1541 1543 1544 1545 1547 1548 1549 1549 1550 1551 1552 1552 1552 1553 1553 1554 1554 1554 1555 1555 1555 1555 1555 1556 1556 1556 1556 1556 1556 1555 1555 1555 1554 1553 1552 1552 1551 1550